050703 151  0.4-  0.3-    050726 151  0.2-  0.2-    050803 213  0.5+  0.1+  

050703 151  0.5-  0.2-    050726 151  0.1-  0.0     050803 213  0.1+  0.1-  

050703 151  0.7-  0.1-    050726 151  0.0   0.0     050803 213  0.5+  0.2+  

050705 203  0.0   0.1-    050726 151  0.2-  0.0     050803 A67  1.0+  0.4-  

050705 203  0.1+  0.3-    050726 151  0.3-  0.1+    050803 A67  0.9+  0.4-  

050705 127  0.2+  0.1+    050726 151  0.2-  0.0     050803 A67  0.7+  0.0   

050705 127  0.3+  0.4+    050726 151  0.0   0.1-    050803 A67  0.7+  0.2-  

050705 127  0.3+  0.1-    050726 151  0.2-  0.0     050803 J71  1.4-  0.5+  

050706 157  0.2-  0.2-    050726 151  0.3-  0.1+    050803 A67  0.6+  0.2-  

050706 157  0.0   0.3-    050726 151  0.2-  0.0     050803 J71  1.2-  0.3+  

050706 157  0.3-  0.2-    050726 151  0.2-  0.1+    050803 J71  1.2-  0.4+  

050706 157  0.5-  0.7-    050726 151  0.0   0.0     050803 J95  0.0   0.0   

050711 A32  0.4-  0.2+    050727 A32  0.3+  0.2-    050803 J95  0.1-  0.0   

050711 A32  0.1-  0.2+    050727 A32  0.2+  0.2-    050803 J95  0.1-  0.1-  

050711 A32  0.1-  0.1+    050727 A32  0.3+  0.2-    050803 J71  1.3-  0.4+  

050711 A32  0.0   0.2+    050727 A32  0.3+  0.1-    050803 147  0.2+  0.2+  

050711 J94  0.1-  0.3-    050727 A32  0.2+  0.0     050803 147  0.1-  0.3+  

050711 127  0.0   0.2-    050727 379  0.1-  0.3-    050803 147  0.0   0.2+  

050711 A32  0.1-  0.2+    050727 379  0.2-  0.1-    050803 147  0.1+  0.3+  

050711 127  0.3+  0.3+    050727 379  0.2-  0.0     050803 147  0.6+  0.4+  

050711 J94  0.6+  0.4-    050727 379  0.4+  0.0     050804 349  0.2-  0.0   

050711 127  0.1+  0.1-    050727 379  0.3-  0.3-    050804 349  0.1-  0.1-  

050711 127  0.2-  0.1+    050727 379  0.0   0.5-    050804 349  0.0   0.0   

050711 J94  0.1-  0.3+    050727 379  0.2+  0.4-    050804 349  0.1+  0.1+  

050711 J93  0.2-  0.2-    050727 379  0.2+  0.3-    050804 213  0.6+  0.2+  

050711 J93  0.0   0.2-    050727 379  0.3+  0.3-    050804 213  0.7+  0.1+  

050711 J93  0.1+  0.3-    050727 151  0.0   0.1+    050805 A67  1.0+  0.3+  

050712 A13  0.4-  0.2+    050727 151  0.0   0.2+    050805 442 (2.6-  2.3-) 

050712 A13  0.5-  0.2+    050727 151  0.1+  0.1-    050805 442 (2.2-  2.6-) 

050712 A13  0.3-  0.3+    050727 151  0.1-  0.1+    050805 A67  0.8+  0.0   

050712 A13  0.3-  0.2+    050727 151  0.3-  0.2+    050805 442 (2.3-  2.3-) 

050712 J94  0.2-  0.6-    050727 151  0.2-  0.2+    050805 J95  0.2-  0.3+  

050712 J94  0.0   0.1-    050727 151  0.1+  0.1-    050805 J95  0.1+  0.2+  

050712 J93  0.4-  0.0     050727 240  0.0   0.2+    050805 J95  0.1+  0.3+  

050712 J93  0.2+  0.0     050727 151  0.1-  0.2+    050806 J95  0.1+  0.3+  

050712 J93  0.2+  0.1-    050727 151  0.0   0.0     050806 J95  0.2+  0.3+  

050712 J94  0.3-  0.2-    050727 240  0.1+  0.4+    050806 J95  0.0   0.2+  

050713 151  0.2-  0.1+    050727 151  0.1+  0.2+    050807 379  0.2+  0.0   

050713 151  0.2-  0.1+    050727 240  0.1+  0.3+    050807 379  0.1+  0.1+  

050713 151  0.3-  0.2+    050727 240  0.0   0.3+    050807 379  0.5+  0.2+  

050713 127  0.1-  0.0     050727 240  0.1+  0.1+    050807 379  0.2-  0.4+  

050713 127  0.2+  0.0     050727 240  0.1-  0.3+    050807 379  0.2+  0.3+  

050713 127  0.0   0.2-    050727 240  0.0   0.3+    050807 J95  0.0   0.2+  

050713 127  0.1-  0.2+    050727 240  0.1+  0.2+    050807 J95  0.2+  0.2+  

050713 127  0.4+  0.0     050727 240  0.1+  0.2+    050807 J95  0.2+  0.3+  

050714 726  0.2-  0.3-    050727 240  0.1+  0.1+                            

050714 726  0.1+  0.0     050727 240  0.0   0.2+                            



NAKANO

         **** Don't distribute anyone except personal use only ****

                (C) Copyright 2005 OAA/ComputingSection

write mail from CFAD0::NAKANO on 2005-08-10 06:05:41(JST).

 





◎P/2002 EX12の軌道と予報位置です



  2002年にパロマ−NEATサ−ベイで発見されたこの小惑星が彗星であることが

判明しました.この彗星は,これで1988年,1997年,2001年,2005年と4回の

出現を記録したことになります.最近では,7月29日に雄踏の和久田俊一氏が

14.7等,30日に ASOのシェロード氏が14.6等と観測しています.なお,8月中

旬には,観測できなくなります.



    P/2002 EX12 (NEAT)

Epoch 2005 Sept. 27.0 TT = JDT 2453640.5  

T 2005 Sept. 17.85867 TT                                Nakano

q   0.6053277            (2000.0)            P               Q

n   0.23460353     Peri.  217.92708     +0.82656356     -0.56269666

a   2.6036325      Node   176.24582     +0.55238489     +0.80661220

e   0.7675065      Incl.   11.31899     +0.10799820     +0.18096748

P   4.20

From 370 observations 1989-2005, mean residual 0".37.

 

Date/        TT  R.A.(2000) Decl.     Delta   r     Daily motion  Mag.  Moon Age

              h    h  m       。  ,                      ,  / PA 。  m1      。

2005 Aug.  1 12  17 01.08  +52 59.0   0.162  1.039   244.2 / 305  13.2   98  .12

           2 12  16 37.60  +55 09.2   0.157  1.026   257.0 / 300  13.1   92  .06

           3 12  16 10.18  +57 05.9   0.153  1.013   268.2 / 294  13.0   85  .03

           4 12  15 38.71  +58 41.2   0.151  1.001   277.2 / 287  12.9   78  .01

           5 12  15 03.58  +59 46.7   0.149  0.988   283.2 / 280  12.8   70  .00

           6 12  14 25.96  +60 15.4   0.148  0.975   285.9 / 272  12.7   64  .02

           7 12  13 47.66  +60 03.2   0.148  0.963   285.1 / 263  12.7   59  .05

           8 12  13 10.69  +59 10.7   0.149  0.950   280.8 / 255  12.6   57  .10

           9 12  12 36.69  +57 42.7   0.151  0.938   273.2 / 248  12.6   59  .17

          10 12  12 06.58  +55 47.0   0.153  0.925   262.9 / 242  12.6   64  .24

          11 12  11 40.56  +53 31.9   0.157  0.913   250.5 / 236  12.6   71  .34

          12 12  11 18.38  +51 05.4   0.162  0.900   236.7 / 232  12.6   81  .44

          13 12  10 59.59  +48 33.7   0.168  0.888   222.1 / 228  12.6   93  .54

          14 12  10 43.66  +46 01.7   0.174  0.876   207.2 / 225  12.6  106  .65

          15 12  10 30.13  +43 32.7   0.181  0.863   192.5 / 223  12.7  119  .75

          16 12  10 18.57  +41 09.0   0.189  0.851   178.2 / 221  12.7  133  .85

          17 12  10 08.65  +38 52.0   0.197  0.839   164.5 / 219  12.7  147  .92

          18 12  10 00.09  +36 42.4   0.206  0.827   151.7 / 217  12.8  159  .97

          19 12  09 52.68  +34 40.5   0.216  0.816   139.7 / 216  12.8  163 1.00

          20 12  09 46.22  +32 46.4   0.226  0.804   128.6 / 214  12.8  155  .99

          21 12  09 40.59  +30 59.6   0.237  0.793   118.3 / 213  12.9  142  .95

          22 12  09 35.66  +29 20.0   0.248  0.781   108.9 / 212  12.9  128  .89

          23 12  09 31.35  +27 47.2   0.259  0.770   100.2 / 210  12.9  114  .81

          24 12  09 27.57  +26 20.6   0.271  0.759    92.3 / 209  13.0  100  .72

          25 12  09 24.27  +24 59.8   0.283  0.749    85.0 / 208  13.0   86  .62

          26 12  09 21.39  +23 44.5   0.296  0.738    78.3 / 206  13.0   73  .51

          27 12  09 18.89  +22 34.2   0.309  0.728    72.2 / 205  13.1   61  .41

          28 12  09 16.74  +21 28.4   0.322  0.718    66.7 / 203  13.1   48  .32

          29 12  09 14.90  +20 26.9   0.336  0.708    61.6 / 201  13.1   36  .23

          30 12  09 13.36  +19 29.3   0.350  0.699    57.0 / 198  13.2   25  .16

          31 12  09 12.09  +18 35.2   0.365  0.690    52.8 / 196  13.2   13  .10

     Sept. 1 12  09 11.07  +17 44.5   0.379  0.681    49.0 / 193  13.2    3  .05

NAKANO

         **** Don't distribute anyone except personal use only ****

                (C) Copyright 2005 OAA/ComputingSection

write mail from CFAD0::NAKANO on 2005-08-02 05:34:45(JST).

 



戻ります。